Zurück zum Katalog

SPARCS

AktivWissenschaftSSO
NORAD 67386·PAYLOAD·🇺🇸 United States
Dieser Satellitenname wurde noch nicht durch offizielle Quellen bestätigt.

Gestartet Jan 11, 2026 von Vandenberg Space Force Base

Loading…

Nächste Überflüge (nächste 24 Stunden)

TLE

AktuellSource: Space-Track

Epoche: Sep 14, 2026, 06:42 UTC

1 67386U 26004Z   26257.27919158  .00001286  00000-0  14220-3 0  9995
2 67386  97.8057 254.7349 0002721 158.5763 201.5568 14.89111937 36559

Verfolge SPARCS in Echtzeit mit AllMySat

Download on the App Store